Regional Weather Roundup
Issued by NWS

Home | Current Version | Previous Version | Graphics & Text | Print | Product List | Glossary Off
Versions: 1 2 3 4 5 6 7 8 9 10 11 12 13 14 15 16 17 18 19 20 21 22 23 24 25 26 27 28 29 30 31 32 33 34 35 36 37 38 39 40 41 42 43 44 45 46 47 48 49 50

000
ASUS43 KTOP 271059
RWRKS

WEATHER ROUNDUP FOR KANSAS
NATIONAL WEATHER SERVICE GOODLAND KS
600 AM CDT WED JUL 27 2016

NOTE:  "FAIR" INDICATES FEW OR NO CLOUDS BELOW 12,000 FEET WITH NO
SIGNIFICANT WEATHER AND/OR OBSTRUCTIONS TO VISIBILITY.

KSZ001>006-013>018-027>032-041>047-271200-
NORTHWEST KANSAS

CITY           SKY/WX    TMP DP  RH WIND       PRES   REMARKS
GOODLAND       PTCLDY    62  59  90 E12       30.11S
HAYS           CLOUDY    66  57  72 SW7       30.07F
HILL CITY      CLOUDY    66  61  84 E3        30.05F
RUSSELL        CLOUDY    69  61  75 E6        30.03F
$$

KSZ061>065-074>080-084>089-271200-
SOUTHWEST KANSAS

CITY           SKY/WX    TMP DP  RH WIND       PRES   REMARKS
DODGE CITY     PTCLDY    69  67  93 S5        30.04F
ELKHART          N/A     69  64  84 N5          N/A
GARDEN CITY    CLOUDY    71  67  87 SE12      30.02F
GREAT BEND     CLOUDY    72  64  78 NE9       30.06R
LIBERAL        MOCLDY    72  63  73 N5        30.08R
$$

KSZ066>073-081>083-090>101-271200-
SOUTHEAST KANSAS

CITY           SKY/WX    TMP DP  RH WIND       PRES   REMARKS
CHANUTE        CLOUDY    74  72  93 E3        29.99F
COFFEYVILLE    CLOUDY    73  72  96 NE6       29.99R
HUTCHINSON     CLOUDY    70  68  93 N7        30.03R FOG
NEWTON         CLEAR     70  70 100 NE6       30.03R FOG
PARSONS        CLOUDY    73  72  96 CALM      30.00S
WICHITA INTL   PTCLDY    75  72  90 E7        29.99S
WICHITA JABRA  FOG       70  70 100 E3        30.00S VSB 3/4
WICHITA MCCONL CLEAR     73  71  93 E7        30.00S
WINFIELD       CLEAR     73  72  96 SE5       30.00S
$$

KSZ007>012-019>026-033>040-048>060-102>105-271200-
NORTHEAST KANSAS

CITY           SKY/WX    TMP DP  RH WIND       PRES   REMARKS
CONCORDIA      PTCLDY    69  66  90 S12       29.97F
EMPORIA        CLEAR     69  68  96 CALM      30.01S
LAWRENCE       PTCLDY    68  66  93 NW6       30.00F
MANHATTAN      PTCLDY    68  67  96 SW3       30.01F
OLATHE IND     CLEAR     69  67  93 CALM      30.01S
SALINA         PTCLDY    72  68  87 NW7       30.04S
TOPEKA BILLARD MOCLDY    69  67  93 NW6       30.02R
TOPEKA FORBES  MOCLDY    72  68  87 CALM      30.01S
$$




USA.gov is the U.S. government's official web portal to all federal, state and local government web resources and services.